Location: Bettgenhausen
(50.6463°N, 7.5681°E)
Time: 03:17:47
(UTC+00:00)

NOSS 2 (A) - Pass Details

Date: 27 February 2020
Orbit: 273 x 1575 km, 63.3° (Epoch: 06 February)

Event Time Altitude Azimuth Distance (km) Brightness Sun altitude
Rises 17:59:37 0° 316° (NW) 2,153 9.0 -9.1°
Reaches altitude 10° 18:01:43 10° 317° (NW) 1,224 7.7 -9.5°
Maximum altitude 18:04:20 88° 49° (NE) 296 3.9 -9.9°
Enters shadow 18:06:38 10° 136° (SE) 1,084 6.4 -10.3°
